Location: Unspecified
(40.7945°N, 0.0000°E)
Time: 19:28:59
(UTC+00:00)

Explorer 7 - Pass Details

Date: 25 June 2021
Orbit: 484 x 676 km, 50.3° (Epoch: 30 July)

Event Time Altitude Azimuth Distance (km) Brightness Sun altitude
Rises 22:39:25 0° 300° (WNW) 3,025 11.4 -23.0°
Reaches altitude 10° 22:42:03 10° 311° (NW) 2,100 10.6 -23.2°
Maximum altitude 22:46:22 30° 13° (NNE) 1,164 8.9 -23.4°
Drops below altitude 10° 22:50:31 10° 75° (ENE) 2,028 9.7 -23.7°
Enters shadow 22:50:58 - 78° (ENE) 2,175 9.8 -23.7°
